Weather in Malygino

Russia / Vladimir Oblast     56°24′47″N   41°09′32″E
temp.,
°C
wind,
m/s
gust,
m/s
humid.,
%
clouds,
%
prec.,
mm/h
press.,
hPa
HPBL,
m
1 august, sun
sun100:00+16wsw38725 0.0 1007164
03:00+15wsw37775 0.0 1009140
06:00+16wsw257817 0.0 1010133
09:00+22sw355579 0.0 1011716
12:00+26wsw4641100 0.0 10101918
15:00+25w4643100 0.0 1011910
18:00+22nne1157100 0.0 100918
21:00+20ssw3975100 0.1 1010272
2 august, mon
mon200:00+19sw2987100 0.3 1010217
03:00+17w1293100 0.4 101018
06:00+18s1189100 0.0 101055
09:00+23ssw2373100 0.4 1010417
12:00+30ssw374272 0.1 10081641
15:00+32sw51035100 0.1 10072951
18:00+27se3552100 0.0 1006312
21:00+20se3108984 2.4 1004193
3 august, tue
tue300:00+18sse31489100 0.6 1004267
03:00+18ssw249117 0.6 100472
06:00+18ssw399447 0.1 1004301
09:00+22sw5865100 0.1 1005789
12:00+24ssw4663100 0.1 10051377
15:00+21wsw468299 8.3 1006825
18:00+18w379282 0.6 1007499
21:00+17w378926 0.7 1009207
4 august, wed
wed400:00+14wsw239550 0.0 101057
03:00+14w24965 0.0 101180
06:00+14w26935 0.0 1011173
09:00+20wnw35600 0.0 1012700
12:00+24wnw354347 0.0 10132082
15:00+22wnw255167 0.0 1014453
18:00+22nw364574 0.0 1014383
21:00+16n356154 0.0 101674
5 august, thu
thu500:00+14n1161100 0.0 101711
03:00+13ene116332 0.0 101811
06:00+14ene116278 0.0 101954
09:00+18ene2252100 0.0 1019279
12:00+23se113757 0.0 10191198
15:00+25sse1235100 0.0 10182257
18:00+22ssw235117 0.0 1017184
21:00+18sse125798 0.0 101830